[[{"header":{"parameterUnit":"m.s-1","parameterCategory":1,"la1":30.2991,"la2":30.254,"lo1":-89.0895,"lo2":-89.0444,"dy":0.0017,"dx":0.0017,"nx":28,"ny":28,"refTime":"2024-12-13T09:00:00:Z","depth":0,"parameterNumber":2,"parameterNumberName":"U-component_of_WINDS"},"data":[0,0,0,0,0,0,0,0,0,0,0,0,0,0,0,0,0,0,0,0,0,0,0,0,0,0,0,0,0,0,0,0,0,0,0,0,0,0,0,0,0,0,0,0,0,0,0,0,0,0,0,0,0,0,0,0,0,0,-5.4711,-5.4712,0,-5.4835,-5.4836,-5.4838,-5.4714,-5.4709,-5.4705,-5.47,-5.4835,-5.4843,-5.4851,0,0,0,0,0,0,0,0,0,0,0,0,0,-5.4375,-5.4381,-5.471,-5.4712,-5.4714,-5.4835,-5.4836,-5.4838,-5.4715,-5.4709,-5.4703,-5.4698,-5.4832,-5.4842,-5.4851,0,0,0,0,0,0,0,0,0,0,0,0,0,-5.4512,-5.4384,-5.471,-5.4667,-5.4664,-5.4834,-5.4836,-5.4839,-5.4716,-5.4709,-5.4702,-5.4695,-5.4829,-5.4841,-5.4853,-5.5075,0,0,-5.489,-5.4895,0,0,0,0,0,0,0,0,-5.4505,-5.4525,-5.4672,-5.467,-5.4667,-5.4751,-5.4767,-5.4918,-5.4718,-5.4697,-5.47,-5.4691,-5.4813,-5.4826,-5.4866,-5.5081,-5.5087,-5.4891,-5.4899,-5.4904,-5.4907,0,0,0,0,0,0,0,-5.4495,-5.4519,-5.476,-5.4674,-5.4671,-5.4644,-5.4655,-5.4795,-5.4795,-5.4698,-5.4689,-5.4705,-5.4811,-5.4855,-5.4868,-5.5089,-5.4891,-5.4902,-5.4909,-5.4914,-5.5495,-5.5502,0,0,0,0,0,0,-5.4489,-5.4512,-5.4756,-5.4764,-5.4566,-5.4656,-5.4668,-5.4732,-5.4793,-5.4795,-5.4712,-5.4699,-5.4837,-5.4854,-5.4873,-5.5138,-5.4904,-5.4915,-5.4922,-5.5487,-5.5496,-5.5505,0,0,0,0,0,0,-5.4483,-5.4512,-5.4751,-5.4635,-5.4663,-5.4669,-5.4742,-5.4738,-5.4782,-5.4803,-5.4803,-5.4756,-5.4832,-5.4855,-5.5025,-5.5141,-5.4921,-5.4932,-5.5477,-5.549,-5.5501,-5.5669,0,0,0,0,0,0,-5.4473,-5.4511,-5.4593,-5.4638,-5.467,-5.49,-5.4749,-5.4746,-5.4802,-5.4787,-5.4844,-5.4847,-5.4828,-5.5008,-5.5038,-5.5154,-5.4941,-5.5467,-5.5483,-5.5497,-5.5654,-5.5686,-5.5713,0,0,0,0,0,-5.4462,-5.4637,-5.4598,-5.4628,-5.4773,-5.4906,-5.4925,-5.4898,-5.4812,-5.4896,-5.491,-5.4845,-5.5123,-5.5026,-5.5059,-5.518,-5.5459,-5.5478,-5.5496,-5.564,-5.568,-5.5713,0,0,0,0,0,0,-5.4607,-5.4642,-5.4599,-5.4793,-5.4847,-5.4885,-5.499,-5.494,-5.5022,-5.5005,-5.497,-5.4984,-5.5164,-5.5189,-5.508,-5.5399,-5.5278,-5.5303,-5.5376,-5.5414,-5.5443,-5.5434,-5.4951,0,0,0,0,0,-5.4661,-5.4764,-5.479,-5.4959,-5.4988,-5.4985,-5.5042,-5.5016,-5.5073,-5.5096,-5.5122,-5.5181,-5.5282,-5.5349,-5.5443,-5.5656,-5.5669,-5.5756,-5.5786,-5.5811,-5.5834,-5.5951,-5.5991,-5.5565,-5.5565,-5.5565,0,0,-5.4775,-5.4806,-5.4874,-5.4989,-5.5028,-5.5138,-5.5005,-5.5127,-5.521,-5.5115,-5.5276,-5.5299,-5.5363,-5.5556,-5.5642,-5.5582,-5.5954,-5.5834,-5.5853,-5.5863,-5.5974,-5.6014,-5.605,-5.5577,-5.5575,-5.5573,0,0,-5.5038,-5.5072,-5.5217,-5.5259,-5.5319,-5.5316,-5.5352,-5.5398,-5.5408,-5.5569,-5.5501,-5.56,-5.5774,-5.5823,-5.587,-5.6155,-5.6099,-5.6187,-5.6343,-5.6458,-5.6492,-5.6521,-5.6625,-5.6662,-5.6209,-5.621,-5.621,0,-5.5173,-5.5333,-5.5298,-5.5425,-5.5479,-5.5397,-5.5545,-5.5588,-5.5678,-5.5718,-5.5649,-5.5866,-5.5904,-5.6108,-5.6178,-5.6218,-5.626,-5.618,-5.6489,-5.6519,-5.6546,-5.6644,-5.6683,-5.622,-5.6219,-5.6218,-5.6217,0,-5.5497,-5.561,-5.572,-5.5806,-5.5873,-5.601,-5.5999,-5.607,-5.604,-5.6045,-5.6212,-5.6254,-5.6356,-5.6402,-5.6374,-5.6604,-5.6565,-5.6494,-5.6371,-5.6597,-5.6689,-5.6727,-5.6235,-5.6231,-5.6228,-5.6225,0,0,-5.5854,-5.592,-5.5961,-5.6001,-5.6062,-5.615,-5.6286,-5.6383,-5.6446,-5.6512,-5.6626,-5.6775,-5.671,-5.6764,-5.6741,-5.6842,-5.7067,-5.6758,-5.6759,-5.6815,-5.7326,-5.7381,-5.7425,-5.703,-5.7037,-5.7043,-5.7321,0,-5.6121,-5.6352,-5.6326,-5.6548,-5.6654,-5.6578,-5.6696,-5.6749,-5.6758,-5.6852,-5.6862,-5.697,-5.6874,-5.6906,-5.7002,-5.7019,-5.7169,-5.6999,-5.7139,-5.7144,-5.7126,-5.7472,-5.753,-5.7791,-5.7357,-5.7363,-5.7367,0,-5.6462,-5.6538,-5.6771,-5.6818,-5.6861,-5.6967,-5.7056,-5.7145,-5.7204,-5.7204,-5.7266,-5.7225,-5.7364,-5.7238,-5.7431,-5.7315,-5.7372,-5.7389,-5.7398,-5.7411,-5.727,-5.7496,-5.7873,-5.7913,-5.7423,-5.7419,-5.7415,0,-5.6702,-5.6862,-5.7022,-5.7058,-5.7117,-5.7194,-5.7222,-5.7274,-5.7335,-5.7413,-5.7453,-5.7547,-5.76,-5.7675,-5.7663,-5.7572,-5.7861,-5.7733,-5.7867,-5.7868,-5.7932,-5.7928,-5.8324,-5.7966,-5.7966,-5.7965,-5.7964,0,-5.7003,-5.7149,-5.7131,-5.723,-5.7392,-5.7362,-5.7524,-5.7543,-5.759,-5.7694,-5.7635,-5.7734,-5.7711,-5.781,-5.7802,-5.7964,-5.7988,-5.7994,-5.799,-5.8,-5.8,-5.8037,-5.8019,-5.7975,-5.7973,-5.7971,-5.7969,0,-5.7298,-5.7292,-5.7462,-5.7503,-5.7517,-5.7636,-5.7672,-5.7767,-5.7772,-5.7904,-5.7933,-5.7942,-5.8056,-5.8051,-5.8181,-5.8175,-5.8376,-5.835,-5.8355,-5.835,-5.8485,-5.8473,-5.892,-5.8978,-5.8582,-5.8585,-5.8589,0,-5.7491,-5.7601,-5.7654,-5.7718,-5.7752,-5.7856,-5.7917,-5.7893,-5.796,-5.8037,-5.8124,-5.8232,-5.8317,-5.8503,-5.8523,-5.8623,-5.86,-5.875,-5.8615,-5.8622,-5.8605,-5.8599,-5.8611,-5.8777,-5.8782,-5.8785,-5.8788,0,-5.7834,-5.7826,-5.7915,-5.8006,-5.8081,-5.8151,-5.8216,-5.8272,-5.8255,-5.8334,-5.8449,-5.8515,-5.8647,-5.8757,-5.8852,-5.8885,-5.8836,-5.8831,-5.8867,-5.8879,-5.8878,-5.8882,-5.8429,-5.8821,-5.8817,-5.8815,-5.8813,-5.8812,-5.8085,-5.818,-5.8233,-5.8336,-5.8381,-5.8443,-5.8535,-5.8551,-5.8645,-5.8749,-5.873,-5.886,-5.8919,-5.9042,-5.9084,-5.9187,-5.9134,-5.9186,-5.92,-5.9214,-5.923,-5.886,-5.9204,-5.9203,-5.9202,-5.9202,-5.9201,0,-5.8426,-5.8457,-5.8552,-5.8643,-5.8725,-5.8669,-5.8738,-5.8811,-5.8925,-5.8983,-5.9068,-5.9202,-5.9308,-5.9337,-5.944,-5.9517,-5.9498,-5.9545,-5.954,-5.9549,-5.927,-5.9229,-5.956,-5.956,-5.956,-5.956,-5.9559,-5.9559,-5.8614,-5.8772,-5.8771,-5.8953,-5.8983,-5.9108,-5.9153,-5.9211,-5.9257,-5.9408,-5.9495,-5.9512,-5.956,-5.9666,-5.9762,-5.9768,-5.981,-5.9867,-5.9865,-5.9604,-5.9568,-5.9534,-5.9495,-5.9876,-5.9877,-6.0134,-6.0137,-6.0138]},{"header":{"parameterUnit":"m.s-1","parameterCategory":1,"la1":30.2991,"la2":30.254,"lo1":-89.0895,"lo2":-89.0444,"dy":0.0017,"dx":0.0017,"nx":28,"ny":28,"refTime":"2024-12-13T09:00:00:Z","depth":0,"parameterNumber":3,"parameterNumberName":"V-component_of_WINDS"},"data":[0,0,0,0,0,0,0,0,0,0,0,0,0,0,0,0,0,0,0,0,0,0,0,0,0,0,0,0,0,0,0,0,0,0,0,0,0,0,0,0,0,0,0,0,0,0,0,0,0,0,0,0,0,0,0,0,0,0,-1.1551,-1.155,0,-1.1432,-1.1431,-1.1429,-1.1344,-1.1343,-1.1342,-1.1342,-1.1216,-1.1214,-1.1211,0,0,0,0,0,0,0,0,0,0,0,0,0,-1.17,-1.1698,-1.1551,-1.155,-1.1548,-1.1432,-1.1431,-1.1429,-1.1344,-1.1343,-1.1342,-1.1341,-1.1217,-1.1214,-1.1211,0,0,0,0,0,0,0,0,0,0,0,0,0,-1.1614,-1.1697,-1.1552,-1.1492,-1.1485,-1.1433,-1.1431,-1.1429,-1.1344,-1.1343,-1.1342,-1.1341,-1.1218,-1.1214,-1.1211,-1.1207,0,0,-1.1198,-1.1196,0,0,0,0,0,0,0,0,-1.1619,-1.1608,-1.1502,-1.1496,-1.1488,-1.1402,-1.1437,-1.1354,-1.1344,-1.1398,-1.1342,-1.134,-1.1279,-1.127,-1.125,-1.1201,-1.1195,-1.1198,-1.1195,-1.1194,-1.1193,0,0,0,0,0,0,0,-1.1625,-1.1613,-1.1504,-1.1501,-1.1492,-1.1469,-1.1456,-1.1421,-1.1345,-1.1393,-1.1386,-1.1374,-1.1275,-1.1254,-1.1246,-1.1194,-1.1198,-1.1194,-1.1192,-1.119,-1.1132,-1.1133,0,0,0,0,0,0,-1.1641,-1.1618,-1.1508,-1.15,-1.1552,-1.1468,-1.1453,-1.1431,-1.1346,-1.1332,-1.1375,-1.137,-1.1261,-1.1251,-1.1241,-1.1229,-1.1194,-1.119,-1.1188,-1.1132,-1.1133,-1.1134,0,0,0,0,0,0,-1.1644,-1.1632,-1.1513,-1.1558,-1.1541,-1.1466,-1.1442,-1.1429,-1.1408,-1.1332,-1.1317,-1.1367,-1.126,-1.1247,-1.1215,-1.1224,-1.1188,-1.1185,-1.1131,-1.1132,-1.1133,-1.1207,0,0,0,0,0,0,-1.1649,-1.1633,-1.1633,-1.1558,-1.1539,-1.1491,-1.1443,-1.1427,-1.1401,-1.1394,-1.1321,-1.1308,-1.1258,-1.1222,-1.1211,-1.1217,-1.1181,-1.1129,-1.1131,-1.1133,-1.1203,-1.121,-1.1216,0,0,0,0,0,-1.1654,-1.1658,-1.1633,-1.162,-1.1536,-1.1491,-1.148,-1.1423,-1.1402,-1.14,-1.1351,-1.131,-1.1225,-1.1219,-1.1207,-1.1212,-1.1129,-1.1131,-1.1133,-1.12,-1.1209,-1.1216,0,0,0,0,0,0,-1.1734,-1.1647,-1.1618,-1.1598,-1.1553,-1.1477,-1.1472,-1.1435,-1.1394,-1.1389,-1.1319,-1.1303,-1.1278,-1.1242,-1.1238,-1.1202,-1.1171,-1.1171,-1.1227,-1.1235,-1.1241,-1.125,-1.1178,0,0,0,0,0,-1.175,-1.1722,-1.1647,-1.1636,-1.1615,-1.1548,-1.1526,-1.1486,-1.1436,-1.1416,-1.1365,-1.1316,-1.1278,-1.1254,-1.1215,-1.1197,-1.1179,-1.1194,-1.1201,-1.1207,-1.1207,-1.1192,-1.1198,-1.114,-1.114,-1.114,0,0,-1.1781,-1.173,-1.1717,-1.1651,-1.1611,-1.1582,-1.1532,-1.1504,-1.1481,-1.1411,-1.1378,-1.1339,-1.128,-1.1255,-1.1241,-1.1223,-1.1219,-1.1209,-1.1215,-1.1211,-1.1195,-1.12,-1.1205,-1.1141,-1.1141,-1.1141,0,0,-1.1823,-1.1783,-1.1768,-1.1729,-1.1669,-1.1624,-1.1621,-1.155,-1.1521,-1.1487,-1.1434,-1.1405,-1.1341,-1.1301,-1.1272,-1.1296,-1.1257,-1.1286,-1.132,-1.1306,-1.1311,-1.1315,-1.1321,-1.1325,-1.1286,-1.1286,-1.1286,0,-1.1869,-1.1825,-1.1765,-1.174,-1.1711,-1.1647,-1.1631,-1.1595,-1.1526,-1.1507,-1.1489,-1.1406,-1.1362,-1.1325,-1.1331,-1.131,-1.1302,-1.1293,-1.1315,-1.1318,-1.1321,-1.1326,-1.1329,-1.129,-1.129,-1.1289,-1.1289,0,-1.1883,-1.1853,-1.1848,-1.1783,-1.1754,-1.1734,-1.1669,-1.1646,-1.1609,-1.1565,-1.153,-1.1474,-1.1422,-1.141,-1.1373,-1.1367,-1.1358,-1.1329,-1.1296,-1.1331,-1.1335,-1.1337,-1.1295,-1.1294,-1.1293,-1.1292,0,0,-1.1973,-1.1874,-1.1873,-1.1842,-1.1771,-1.1745,-1.172,-1.167,-1.1651,-1.1604,-1.158,-1.1527,-1.1499,-1.1466,-1.1423,-1.1412,-1.1432,-1.1383,-1.138,-1.1393,-1.1419,-1.1442,-1.1445,-1.1406,-1.1406,-1.1406,-1.1424,0,-1.2003,-1.1957,-1.1901,-1.1873,-1.1843,-1.1781,-1.1759,-1.1711,-1.167,-1.1636,-1.1589,-1.1552,-1.1518,-1.1498,-1.1484,-1.1433,-1.1436,-1.1431,-1.138,-1.1379,-1.1396,-1.1448,-1.1471,-1.1491,-1.1425,-1.1425,-1.1426,0,-1.2032,-1.1989,-1.1958,-1.1887,-1.1872,-1.1854,-1.1802,-1.1772,-1.1716,-1.1686,-1.1649,-1.1603,-1.1571,-1.1543,-1.1497,-1.1495,-1.1471,-1.1442,-1.1442,-1.1434,-1.1404,-1.144,-1.1496,-1.1499,-1.1428,-1.1428,-1.1428,0,-1.2098,-1.2032,-1.2005,-1.198,-1.1898,-1.1886,-1.185,-1.1793,-1.1766,-1.172,-1.17,-1.1651,-1.1624,-1.1586,-1.1527,-1.1512,-1.1487,-1.1454,-1.1459,-1.1461,-1.1456,-1.1457,-1.1508,-1.1443,-1.1443,-1.1443,-1.1443,0,-1.2136,-1.212,-1.2033,-1.2016,-1.1995,-1.193,-1.191,-1.1869,-1.1818,-1.1791,-1.1734,-1.1708,-1.1633,-1.1598,-1.1552,-1.1519,-1.1508,-1.1481,-1.1469,-1.1486,-1.1489,-1.1468,-1.1465,-1.1444,-1.1443,-1.1443,-1.1443,0,-1.2207,-1.2149,-1.2114,-1.2039,-1.2019,-1.2006,-1.194,-1.192,-1.1875,-1.184,-1.1828,-1.1756,-1.1712,-1.165,-1.1586,-1.1555,-1.1529,-1.151,-1.1548,-1.154,-1.1548,-1.1548,-1.1586,-1.1587,-1.1524,-1.1525,-1.1525,0,-1.2235,-1.222,-1.2143,-1.2121,-1.2088,-1.2053,-1.2024,-1.1959,-1.1932,-1.1866,-1.1853,-1.1805,-1.1762,-1.1694,-1.1635,-1.1586,-1.1564,-1.1581,-1.1556,-1.1573,-1.1562,-1.1563,-1.156,-1.1587,-1.1588,-1.1589,-1.1589,0,-1.229,-1.2261,-1.2223,-1.2174,-1.2142,-1.21,-1.2055,-1.204,-1.1965,-1.1936,-1.1891,-1.1858,-1.1793,-1.1745,-1.1687,-1.1648,-1.1606,-1.1598,-1.1596,-1.1612,-1.1634,-1.1621,-1.1563,-1.1597,-1.1596,-1.1596,-1.1595,-1.1595,-1.2338,-1.2322,-1.2264,-1.2223,-1.2182,-1.2142,-1.2118,-1.207,-1.2031,-1.1974,-1.1937,-1.1893,-1.1835,-1.1753,-1.1716,-1.1679,-1.1662,-1.166,-1.1659,-1.1659,-1.1664,-1.1641,-1.1669,-1.1668,-1.1668,-1.1668,-1.1668,0,-1.2389,-1.2349,-1.2311,-1.225,-1.2217,-1.2181,-1.2129,-1.2103,-1.2065,-1.2015,-1.1975,-1.1921,-1.1873,-1.181,-1.1758,-1.174,-1.1719,-1.1728,-1.1728,-1.1719,-1.1684,-1.169,-1.1746,-1.1746,-1.1746,-1.1746,-1.1746,-1.1746,-1.2411,-1.2381,-1.2345,-1.2293,-1.2252,-1.2209,-1.2182,-1.2143,-1.2102,-1.2046,-1.2006,-1.1966,-1.1909,-1.1852,-1.1805,-1.1788,-1.177,-1.1785,-1.1762,-1.1729,-1.1722,-1.1715,-1.1721,-1.1782,-1.1783,-1.18,-1.18,-1.18]}]]